Regional Weather Roundup
Issued by NWS

Home | Current Version | Previous Version | Graphics & Text | Print | Product List | Glossary On
Versions: 1 2 3 4 5 6 7 8 9 10 11 12 13 14 15 16 17 18 19 20 21 22 23 24 25 26 27
000
ASUS43 KDMX 230207
RWRIA

WEATHER ROUNDUP FOR IOWA
NATIONAL WEATHER SERVICE DES MOINES IA
900 PM CDT WED OCT 22 2014

NOTE: "FAIR" INDICATES FEW OR NO CLOUDS BELOW 12,000 FEET WITH NO
SIGNIFICANT WEATHER AND/OR OBSTRUCTIONS TO VISIBILITY.

* - THESE STATIONS ARE NOT NWS STATIONS...THUS NOT UNDER NWS
QUALITY CONTROL.  THEY ALSO DO NOT REPORT WEATHER SUCH
AS PRECIPITATION OR FOG.

IAZ001>003-012>014-020>022-031>034-043>046-230300-
   NORTHWEST IOWA

CITY           SKY/WX    TMP DP  RH WIND       PRES   REMARKS
CARROLL *      CLOUDY    59  48  67 S12G17    30.05S
CHEROKEE *     RAIN      58  58 100 SE7       30.05R
DENISON *      RAIN      59  59 100 CALM      30.08R
LE MARS *      CLOUDY    59  59 100 CALM      30.03R
ORANGE CITY *  CLOUDY    61  57  88 S7        30.03S
SHELDON *      CLOUDY    57  57 100 S10       30.01S FOG
SIOUX CITY     CLOUDY    60  58  92 SE5       30.03S
SPENCER        RAIN      59  57  93 SE9       30.04F FOG
STORM LAKE *   HVY RAIN  59  57  94 SW8       30.08S
$$

IAZ055>058-069>071-079>083-090>094-230300-
   SOUTHWEST IOWA

CITY           SKY/WX    TMP DP  RH WIND       PRES   REMARKS
ATLANTIC *     MOCLDY    63  48  59 S13G21    30.04S
AUDUBON *      PTCLDY    59  46  63 SE10      30.06S
CLARINDA *     CLEAR     63  50  63 S8G16     30.08F
COUNCIL BLFS * RAIN      63  63 100 NW3       30.06S
CRESTON *      PTCLDY    57  48  72 SE12      30.10S
HARLAN  *      LGT RAIN  63  54  72 S13G20    30.11R
LAMONI         CLEAR     57  47  69 SE13      30.12S
RED OAK *      CLOUDY    63  52  67 S12       30.05S
SHENANDOAH *   MOCLDY    64  54  68 SE14G21   30.05S
$$

IAZ047>049-059>061-072>074-084-230300-
   CENTRAL IOWA

CITY           SKY/WX    TMP DP  RH WIND       PRES   REMARKS
AMES           PTCLDY    56  44  64 SE13      30.11F
ANKENY *       PTCLDY    57  46  67 SE10G16   30.11F
CHARITON *     CLOUDY    57  45  62 SE13      30.14S
DES MOINES     MOCLDY    59  45  59 SE13      30.12S
GRINNELL*      MOCLDY    54  41  62 SE9       30.16S
KNOXVILLE *    MOCLDY    57  43  58 SE10      30.13S
MARSHALLTOWN   CLOUDY    56  42  59 SE10      30.13F
PELLA *        MOCLDY    57  43  58 SE10      30.16S
PERRY *          N/A     57  48  72 SE10      30.08F
$$

IAZ004>006-015-016-023>025-035-036-230300-
   NORTH CENTRAL IOWA

CITY           SKY/WX    TMP DP  RH WIND       PRES   REMARKS
ALGONA *       PTCLDY    57  46  67 S20G25    30.05S
CLARION *      CLEAR     55  45  67 SE15G22   30.07F
ESTHERVILLE    CLOUDY    59  47  64 S18       30.05R
FORT DODGE *   MOCLDY    57  45  62 S13G20    30.07S
MASON CITY     MOCLDY    54  42  64 SE16G24   30.10F
FOREST CITY *  CLEAR     54  43  66 SE14G22   30.06F
IOWA FALLS *     N/A     55  43  62 SE14      30.12S
$$

IAZ007>011-017>019-026>030-037>042-050>054-066-230300-
   NORTHEAST IOWA

CITY           SKY/WX    TMP DP  RH WIND       PRES   REMARKS
CEDAR RAPIDS   CLEAR     50  39  66 SE8       30.18F
CHARLES CITY * CLOUDY    55  39  54 SE14      30.14S
CLINTON *      CLEAR     45  34  65 SE8       30.26S
DECORAH *      CLOUDY    50  37  62 SE8       30.15F
DUBUQUE        CLEAR     46  37  71 S10       30.21S
MONTICELLO *   CLEAR     48  39  71 SE8       30.19F
OELWEIN *      PTCLDY    50  39  66 SE9       30.17S
WATERLOO       MOCLDY    54  39  57 SE15G21   30.14F
$$

IAZ064-065-067-068-078-230300-
   EAST CENTRAL IOWA

CITY           SKY/WX    TMP DP  RH WIND       PRES   REMARKS
DAVENPORT      CLEAR     45  35  68 SE8       30.24R
IOWA CITY      CLEAR     46  39  76 SE5       30.21S
MT. PLEASANT * CLEAR     46  39  76 SE7       30.20F
MUSCATINE *    CLEAR     50  39  66 SE5       30.22S
QUAD CITIES    CLEAR     39  35  86 CALM      30.24R
$$

IAZ062-063-075>077-085>089-095>099-230300-
   SOUTHEAST IOWA

CITY           SKY/WX    TMP DP  RH WIND       PRES   REMARKS
BURLINGTON     CLEAR     50  40  68 SE7       30.22S
FAIRFIELD *    CLEAR     48  39  71 SE7       30.19S
FORT MADISON * CLEAR     48  43  81 SE6       30.22S
KEOKUK *       CLEAR     50  43  76 SE7       30.21S
OSKALOOSA *      N/A     50  41  70 SE8       30.17S
CENTERVILLE *  CLEAR     54  43  66 SE7       30.18S
OTTUMWA        MOCLDY    53  41  63 SE9       30.17S
WASHINGTON *   CLEAR     46  41  81 SE7       30.19F
$$

ABBREVIATIONS USED IN REMARKS
   TC - TEMPERATURES IN CELSIUS
  WCI - WIND CHILL INDEX
   HX - HEAT INDEX
  VSB - VISIBILITY
$$




USA.gov is the U.S. government's official web portal to all federal, state and local government web resources and services.